[[{"header":{"parameterUnit":"m.s-1","parameterCategory":2,"la1":30.2991,"la2":30.254,"lo1":-89.0895,"lo2":-89.0444,"dy":0.0017,"dx":0.0017,"nx":28,"ny":28,"refTime":"2024-12-20T09:00:00:Z","depth":"0","parameterNumber":2,"parameterNumberName":"U-component_of_CURRENTS"},"data":[0,0,0,0,0,0,0,0,0,0,0,0,0,0,0,0,0,0,0,0,0,0,0,0,0,0,0,0,0,0,0,0,0,0,0,0,0,0,0,0,0,0,0,0,0,0,0,0,0,0,0,0,0,0,0,0,0,0,0.338,0.338,0,0.333,0.333,0.3329,0.3295,0.3294,0.3294,0.3294,0.3264,0.3264,0.3263,0,0,0,0,0,0,0,0,0,0,0,0,0,0.3453,0.3451,0.338,0.338,0.3379,0.3331,0.333,0.3329,0.3295,0.3294,0.3294,0.3294,0.3265,0.3264,0.3263,0,0,0,0,0,0,0,0,0,0,0,0,0,0.3413,0.3451,0.3381,0.3357,0.3354,0.3331,0.333,0.3329,0.3295,0.3294,0.3294,0.3294,0.3265,0.3264,0.3263,0.3264,0,0,0.326,0.326,0,0,0,0,0,0,0,0,0.3415,0.3411,0.3361,0.3358,0.3355,0.3319,0.3344,0.3308,0.3295,0.3317,0.3294,0.3294,0.3285,0.3283,0.3273,0.3262,0.3261,0.326,0.326,0.3259,0.3259,0,0,0,0,0,0,0,0.3418,0.3413,0.336,0.336,0.3357,0.3351,0.3345,0.3337,0.3303,0.3315,0.3312,0.3308,0.3284,0.3274,0.3272,0.3261,0.326,0.3259,0.3259,0.3259,0.3274,0.3275,0,0,0,0,0,0,0.3425,0.3415,0.3362,0.3359,0.3386,0.335,0.3343,0.333,0.3303,0.3298,0.3308,0.3306,0.3275,0.3273,0.3271,0.33,0.3259,0.3258,0.3258,0.3273,0.3275,0.3276,0,0,0,0,0,0,0.3427,0.3421,0.3364,0.3387,0.3379,0.3349,0.3335,0.333,0.3323,0.3298,0.3293,0.3307,0.3275,0.3272,0.3273,0.3297,0.3258,0.3257,0.3272,0.3274,0.3275,0.3339,0,0,0,0,0,0,0.3429,0.3421,0.3421,0.3387,0.3378,0.3358,0.3335,0.3329,0.3321,0.3318,0.3296,0.3292,0.3274,0.3274,0.3272,0.3296,0.3257,0.3271,0.3273,0.3275,0.3336,0.3343,0.3349,0,0,0,0,0,0.3432,0.343,0.3421,0.3415,0.3376,0.3358,0.3354,0.3331,0.3321,0.3323,0.331,0.3293,0.3284,0.3274,0.3271,0.3295,0.327,0.3272,0.3275,0.3333,0.3342,0.3349,0,0,0,0,0,0,0.3449,0.3426,0.3415,0.3403,0.3387,0.3353,0.3352,0.3337,0.3327,0.3326,0.3302,0.3298,0.3312,0.3293,0.3282,0.3305,0.3276,0.3278,0.3322,0.3329,0.3336,0.3369,0.3256,0,0,0,0,0,0.3457,0.3455,0.3427,0.3418,0.3413,0.3385,0.3377,0.3362,0.3345,0.3339,0.3323,0.3313,0.3317,0.3314,0.331,0.3318,0.3339,0.3332,0.3339,0.3344,0.337,0.3432,0.3448,0.3283,0.3283,0.3283,0,0,0.3456,0.3447,0.3441,0.3423,0.3408,0.3406,0.3379,0.337,0.3374,0.3339,0.3342,0.3335,0.3326,0.3339,0.3343,0.3326,0.3398,0.3347,0.3352,0.3375,0.3436,0.3453,0.3467,0.3284,0.3284,0.3284,0,0,0.3457,0.3451,0.345,0.3447,0.3435,0.3424,0.3425,0.3399,0.3396,0.3397,0.3383,0.3397,0.338,0.339,0.3392,0.3432,0.3433,0.3421,0.3477,0.3537,0.3552,0.3566,0.36,0.3616,0.342,0.3421,0.3421,0,0.3456,0.3451,0.3447,0.3451,0.3454,0.3436,0.3439,0.3438,0.3416,0.3432,0.3407,0.3432,0.3414,0.3462,0.347,0.345,0.3475,0.3448,0.3549,0.3562,0.3575,0.3607,0.3624,0.3424,0.3423,0.3423,0.3423,0,0.3453,0.3459,0.3461,0.3466,0.3474,0.3472,0.3475,0.3487,0.3483,0.3486,0.3528,0.3516,0.3538,0.353,0.3509,0.3589,0.3574,0.3554,0.3534,0.3596,0.3624,0.3641,0.3429,0.3427,0.3426,0.3426,0,0,0.34,0.3451,0.3446,0.3462,0.3483,0.348,0.352,0.3545,0.3588,0.3581,0.364,0.3644,0.3653,0.3657,0.3643,0.3685,0.3777,0.3659,0.366,0.3702,0.3904,0.3832,0.3842,0.378,0.3783,0.3786,0.3884,0,0.3388,0.3412,0.3445,0.3466,0.3474,0.351,0.3552,0.3586,0.3624,0.368,0.37,0.3745,0.3698,0.3721,0.3761,0.3781,0.3826,0.3752,0.3831,0.3834,0.377,0.3862,0.3713,0.3783,0.39,0.3903,0.3905,0,0.335,0.338,0.3405,0.3479,0.3488,0.3511,0.3594,0.3635,0.3731,0.3772,0.384,0.3859,0.3928,0.3875,0.3967,0.3924,0.3928,0.3934,0.3937,0.3866,0.3793,0.3742,0.3808,0.3717,0.393,0.3928,0.3926,0,0.3282,0.3342,0.3367,0.3384,0.3466,0.3502,0.3555,0.3655,0.3713,0.3844,0.39,0.399,0.4028,0.4078,0.4076,0.404,0.417,0.4119,0.406,0.4054,0.3942,0.392,0.394,0.42,0.42,0.42,0.42,0,0.3234,0.3245,0.3341,0.3344,0.3394,0.3474,0.3548,0.3632,0.3766,0.3829,0.3939,0.4002,0.4083,0.4146,0.4146,0.4161,0.423,0.4105,0.4093,0.3955,0.3934,0.3859,0.3806,0.4203,0.4203,0.4202,0.4201,0,0.3132,0.3193,0.3222,0.3322,0.3354,0.3387,0.3521,0.3582,0.3731,0.3826,0.387,0.4035,0.412,0.4184,0.4267,0.4231,0.4148,0.4243,0.4064,0.4029,0.3861,0.3817,0.3716,0.3605,0.4209,0.4208,0.4207,0,0.3079,0.3087,0.318,0.32,0.324,0.3312,0.3361,0.3531,0.3605,0.3811,0.3844,0.3995,0.4056,0.4188,0.4195,0.423,0.4099,0.4086,0.3988,0.3865,0.3809,0.3668,0.3571,0.3861,0.3857,0.3855,0.3852,0,0.2981,0.3018,0.3047,0.3096,0.3139,0.3189,0.3283,0.3344,0.3525,0.3609,0.3729,0.3815,0.3975,0.397,0.4051,0.4045,0.3893,0.4025,0.3959,0.3603,0.3393,0.3273,0.377,0.3826,0.3829,0.3831,0.3832,0.3833,0.2904,0.2902,0.295,0.2977,0.3021,0.3048,0.3047,0.3157,0.3236,0.3346,0.3519,0.3582,0.3726,0.3832,0.3816,0.3722,0.3704,0.3603,0.3582,0.3467,0.3289,0.372,0.3719,0.3721,0.3723,0.3724,0.3725,0,0.2798,0.2808,0.2832,0.2855,0.2835,0.2904,0.2964,0.2941,0.2954,0.3115,0.3193,0.3289,0.3335,0.3436,0.3443,0.3314,0.3172,0.3219,0.3,0.2943,0.3394,0.3308,0.3142,0.3142,0.3142,0.3142,0.3143,0.3143,0.2746,0.2715,0.2722,0.2653,0.266,0.259,0.2582,0.2578,0.2656,0.2689,0.2741,0.2869,0.3101,0.3196,0.3105,0.3028,0.2794,0.266,0.2662,0.3002,0.3036,0.3068,0.2977,0.2745,0.2744,0.209,0.2086,0.2082]},{"header":{"parameterUnit":"m.s-1","parameterCategory":2,"la1":30.2991,"la2":30.254,"lo1":-89.0895,"lo2":-89.0444,"dy":0.0017,"dx":0.0017,"nx":28,"ny":28,"refTime":"2024-12-20T09:00:00:Z","depth":"0","parameterNumber":3,"parameterNumberName":"V-component_of_CURRENTS"},"data":[0,0,0,0,0,0,0,0,0,0,0,0,0,0,0,0,0,0,0,0,0,0,0,0,0,0,0,0,0,0,0,0,0,0,0,0,0,0,0,0,0,0,0,0,0,0,0,0,0,0,0,0,0,0,0,0,0,0,-0.0069,-0.007,0,-0.0102,-0.0102,-0.0103,-0.0135,-0.0135,-0.0135,-0.0135,-0.02,-0.0202,-0.0203,0,0,0,0,0,0,0,0,0,0,0,0,0,-0.0082,-0.0081,-0.0069,-0.007,-0.007,-0.0102,-0.0102,-0.0103,-0.0135,-0.0135,-0.0135,-0.0135,-0.02,-0.0201,-0.0203,0,0,0,0,0,0,0,0,0,0,0,0,0,-0.0094,-0.0081,-0.0069,-0.0087,-0.0089,-0.0101,-0.0102,-0.0103,-0.0135,-0.0135,-0.0135,-0.0136,-0.0199,-0.0201,-0.0204,-0.0213,0,0,-0.0211,-0.0212,0,0,0,0,0,0,0,0,-0.0093,-0.0094,-0.0085,-0.0086,-0.0088,-0.0112,-0.013,-0.0141,-0.0135,-0.0121,-0.0135,-0.0136,-0.0172,-0.0176,-0.0185,-0.0216,-0.0219,-0.0211,-0.0212,-0.0213,-0.0214,0,0,0,0,0,0,0,-0.0092,-0.0093,-0.0085,-0.0085,-0.0087,-0.0109,-0.0111,-0.0133,-0.0147,-0.0122,-0.0123,-0.0122,-0.0173,-0.0183,-0.0187,-0.022,-0.0211,-0.0213,-0.0215,-0.0215,-0.0253,-0.0252,0,0,0,0,0,0,-0.008,-0.0092,-0.0084,-0.0086,-0.0088,-0.0109,-0.0111,-0.0106,-0.0146,-0.0151,-0.0122,-0.0124,-0.0179,-0.0184,-0.019,-0.0187,-0.0213,-0.0216,-0.0217,-0.0253,-0.0253,-0.0252,0,0,0,0,0,0,-0.008,-0.0079,-0.0083,-0.0088,-0.0089,-0.0107,-0.0103,-0.0107,-0.0113,-0.0146,-0.0152,-0.0123,-0.0179,-0.0186,-0.02,-0.019,-0.0217,-0.0219,-0.0254,-0.0253,-0.0252,-0.0192,0,0,0,0,0,0,-0.008,-0.0078,-0.0075,-0.0086,-0.0088,-0.008,-0.0102,-0.0107,-0.011,-0.0113,-0.0148,-0.0155,-0.018,-0.0197,-0.0203,-0.0194,-0.0221,-0.0254,-0.0253,-0.0253,-0.0195,-0.0189,-0.0185,0,0,0,0,0,-0.008,-0.0067,-0.0075,-0.0074,-0.0082,-0.0079,-0.0082,-0.0098,-0.011,-0.0106,-0.0131,-0.0154,-0.0196,-0.0198,-0.0205,-0.0197,-0.0255,-0.0254,-0.0253,-0.0197,-0.019,-0.0185,0,0,0,0,0,0,-0.0064,-0.0069,-0.0078,-0.0066,-0.0068,-0.0083,-0.0081,-0.0092,-0.011,-0.0114,-0.0149,-0.0156,-0.0167,-0.0189,-0.019,-0.0206,-0.0229,-0.0229,-0.0184,-0.0179,-0.0174,-0.0154,-0.0223,0,0,0,0,0,-0.006,-0.0055,-0.0061,-0.005,-0.005,-0.0066,-0.0069,-0.0077,-0.0091,-0.0099,-0.0123,-0.0149,-0.0169,-0.0178,-0.0202,-0.0208,-0.0228,-0.0208,-0.0203,-0.0199,-0.0188,-0.021,-0.0206,-0.0249,-0.0249,-0.0249,0,0,-0.0051,-0.0052,-0.0049,-0.0048,-0.0054,-0.004,-0.0068,-0.0064,-0.0055,-0.0103,-0.0103,-0.0135,-0.0168,-0.0176,-0.0182,-0.0192,-0.0196,-0.0197,-0.0193,-0.0185,-0.0209,-0.0205,-0.0201,-0.0248,-0.0249,-0.0249,0,0,-0.0019,-0.003,-0.0012,-0.0012,-0.0013,-0.0021,-0.0015,-0.0026,-0.0035,-0.004,-0.0072,-0.0093,-0.0123,-0.0142,-0.0157,-0.0139,-0.0172,-0.0149,-0.0107,-0.0128,-0.0125,-0.0122,-0.0138,-0.0137,-0.0144,-0.0144,-0.0144,0,-0.0007,0.0016,-0.0006,0.0014,0.0023,-0.0006,0.0022,0.0009,-0.0006,-0.0006,-0.0031,-0.0073,-0.0106,-0.011,-0.0106,-0.0127,-0.0143,-0.0125,-0.0121,-0.0119,-0.0117,-0.0134,-0.0134,-0.0141,-0.0141,-0.0141,-0.0142,0,0.004,0.0056,0.0069,0.0083,0.0087,0.0106,0.0092,0.0089,0.007,0.0058,0.0043,-0.0007,-0.0027,-0.0046,-0.0072,-0.0072,-0.0089,-0.0114,-0.0133,-0.0109,-0.0129,-0.013,-0.0136,-0.0138,-0.0138,-0.0139,0,0,0.0088,0.01,0.0107,0.0127,0.0127,0.0142,0.015,0.0159,0.0179,0.0134,0.0153,0.0097,0.0066,0.0048,0.0006,-0.0018,-0.0025,-0.0054,-0.0057,-0.0064,-0.0067,-0.0082,-0.0085,-0.005,-0.005,-0.005,-0.0085,0,0.0138,0.0189,0.0179,0.0231,0.026,0.0235,0.025,0.0246,0.0238,0.0245,0.018,0.0175,0.0104,0.0096,0.006,0.0005,-0.0025,-0.0013,-0.0094,-0.0096,-0.0108,-0.0086,-0.0065,-0.0095,-0.0086,-0.0086,-0.0086,0,0.02,0.0225,0.0281,0.0313,0.0323,0.0341,0.037,0.0385,0.0374,0.0365,0.0337,0.0289,0.0248,0.018,0.0089,0.0101,0.0023,-0.0033,-0.0037,-0.007,-0.0113,-0.0119,-0.0097,-0.0241,-0.0088,-0.0088,-0.0088,0,0.026,0.0305,0.0351,0.0362,0.0385,0.0401,0.0415,0.0421,0.046,0.0447,0.0469,0.0395,0.038,0.0267,0.014,0.0118,0.004,-0.0006,-0.0097,-0.0099,-0.0107,-0.011,-0.0227,-0.0078,-0.0078,-0.0078,-0.0078,0,0.0328,0.037,0.038,0.0409,0.0473,0.0462,0.0536,0.0535,0.0565,0.0629,0.0538,0.0572,0.0401,0.033,0.0187,0.0056,0.0073,-0.0079,-0.0106,-0.0085,-0.0086,-0.0232,-0.0328,-0.0079,-0.0079,-0.0079,-0.0078,0,0.0392,0.0397,0.0459,0.0487,0.0505,0.0552,0.0625,0.0682,0.0687,0.0769,0.0767,0.0721,0.0631,0.045,0.0288,0.0141,-0.0085,-0.0061,-0.0023,-0.0045,-0.027,-0.0363,-0.0512,-0.0568,-0.0161,-0.0162,-0.0162,0,0.0427,0.0463,0.0523,0.0572,0.0588,0.0659,0.0715,0.0744,0.0823,0.0872,0.0927,0.0859,0.0847,0.06,0.0328,0.0079,-0.0084,-0.0084,-0.0133,-0.0271,-0.0394,-0.0461,-0.0501,-0.012,-0.012,-0.012,-0.012,0,0.0499,0.0515,0.0564,0.0663,0.073,0.0822,0.0908,0.099,0.1036,0.1106,0.1193,0.1185,0.0945,0.0726,0.0364,0.0172,-0.0182,-0.0093,-0.0246,-0.0376,-0.0446,-0.0515,-0.011,-0.012,-0.012,-0.012,-0.012,-0.012,0.055,0.06,0.0664,0.0762,0.0849,0.0969,0.1065,0.1173,0.1307,0.1426,0.1409,0.1439,0.108,0.0608,0.0325,-0.0176,-0.0192,-0.0327,-0.0427,-0.048,-0.054,-0.0133,-0.0171,-0.0172,-0.0172,-0.0172,-0.0172,0,0.061,0.0667,0.0763,0.0877,0.0988,0.1019,0.1184,0.1294,0.1466,0.1584,0.1665,0.1524,0.108,0.0601,-0.0075,-0.0431,-0.0564,-0.0636,-0.073,-0.0755,-0.0395,-0.0398,-0.0474,-0.0474,-0.0474,-0.0473,-0.0473,-0.0473,0.0642,0.0735,0.0783,0.0969,0.106,0.1214,0.1315,0.1482,0.1612,0.1776,0.1819,0.1818,0.1442,0.0234,-0.0566,-0.0755,-0.0996,-0.1069,-0.1186,-0.0953,-0.0931,-0.0911,-0.0936,-0.1123,-0.1124,-0.1477,-0.1481,-0.1484]}],[{"header":{"parameterUnit":"m.s-1","parameterCategory":2,"la1":30.2991,"la2":30.254,"lo1":-89.0895,"lo2":-89.0444,"dy":0.0017,"dx":0.0017,"nx":28,"ny":28,"refTime":"2024-12-20T09:00:00:Z","depth":"2","parameterNumber":2,"parameterNumberName":"U-component_of_CURRENTS"},"data":[0,0,0,0,0,0,0,0,0,0,0,0,0,0,0,0,0,0,0,0,0,0,0,0,0,0,0,0,0,0,0,0,0,0,0,0,0,0,0,0,0,0,0,0,0,0,0,0,0,0,0,0,0,0,0,0,0,0,0.273,0.2731,0,0.2742,0.2742,0.2742,0.2742,0.2742,0.2742,0.2743,0.2745,0.2745,0.2744,0,0,0,0,0,0,0,0,0,0,0,0,0,0.2683,0.2683,0.273,0.2731,0.2731,0.2742,0.2742,0.2742,0.2742,0.2742,0.2742,0.2743,0.2745,0.2745,0.2744,0,0,0,0,0,0,0,0,0,0,0,0,0,0.2697,0.2684,0.273,0.2735,0.2736,0.2742,0.2742,0.2742,0.2742,0.2742,0.2742,0.2743,0.2745,0.2745,0.2744,0.274,0,0,0.2744,0.2744,0,0,0,0,0,0,0,0,0.2696,0.2698,0.2734,0.2735,0.2735,0.2744,0.2726,0.2742,0.2742,0.2736,0.2743,0.2743,0.2745,0.2745,0.2743,0.274,0.2741,0.2744,0.2744,0.2744,0.2744,0,0,0,0,0,0,0,0.2695,0.2698,0.2732,0.2734,0.2735,0.2728,0.273,0.2729,0.2737,0.2737,0.2738,0.2744,0.2745,0.2743,0.2743,0.2741,0.2744,0.2744,0.2744,0.2744,0.2784,0.2785,0,0,0,0,0,0,0.2701,0.2697,0.2732,0.2733,0.2719,0.2729,0.2731,0.2738,0.2737,0.2738,0.2744,0.2744,0.2743,0.2743,0.2743,0.2786,0.2744,0.2744,0.2744,0.2783,0.2784,0.2785,0,0,0,0,0,0,0.27,0.2704,0.2731,0.2717,0.2721,0.273,0.2738,0.2739,0.275,0.2743,0.2743,0.2757,0.2743,0.2743,0.2756,0.2784,0.2744,0.2744,0.2781,0.2783,0.2785,0.2842,0,0,0,0,0,0,0.2699,0.2704,0.2715,0.2718,0.2722,0.2748,0.2738,0.2739,0.2754,0.2755,0.2754,0.2754,0.2743,0.2757,0.2756,0.2784,0.2744,0.278,0.2782,0.2784,0.2839,0.2845,0.2851,0,0,0,0,0,0.2697,0.2708,0.2716,0.272,0.2736,0.2749,0.275,0.2755,0.2755,0.2765,0.2765,0.2754,0.277,0.2757,0.2757,0.2785,0.2779,0.2782,0.2784,0.2836,0.2844,0.2851,0,0,0,0,0,0,0.2695,0.271,0.2718,0.2734,0.2749,0.2751,0.2762,0.2764,0.2771,0.2775,0.2764,0.2764,0.2789,0.2777,0.2763,0.2803,0.2775,0.2777,0.2814,0.2822,0.2828,0.2851,0.2744,0,0,0,0,0,0.2701,0.2711,0.2728,0.2742,0.2754,0.2761,0.2769,0.2775,0.278,0.2784,0.2783,0.2786,0.2797,0.2801,0.2805,0.2821,0.2835,0.2841,0.2847,0.2852,0.2871,0.2917,0.293,0.2794,0.2794,0.2793,0,0,0.27,0.2714,0.2717,0.2742,0.2754,0.2774,0.2766,0.2786,0.2804,0.2783,0.2806,0.2809,0.2807,0.283,0.284,0.2824,0.2897,0.2855,0.286,0.2876,0.2921,0.2934,0.2946,0.2795,0.2795,0.2795,0,0,0.2704,0.2723,0.2734,0.2753,0.2781,0.2789,0.2801,0.2815,0.2827,0.2848,0.2844,0.2867,0.2869,0.2882,0.2887,0.293,0.2931,0.2928,0.2977,0.3021,0.3033,0.3044,0.3076,0.3089,0.2929,0.2929,0.2929,0,0.2703,0.2725,0.274,0.2763,0.2783,0.2801,0.2823,0.2839,0.2855,0.2874,0.2864,0.2903,0.2899,0.2942,0.2959,0.2946,0.2968,0.2947,0.3031,0.3042,0.3052,0.3082,0.3096,0.2932,0.2932,0.2932,0.2931,0,0.2718,0.2742,0.2754,0.2789,0.2812,0.2835,0.2866,0.2891,0.2907,0.2924,0.2973,0.2977,0.3003,0.3006,0.2996,0.3066,0.3057,0.3036,0.3014,0.307,0.3097,0.3111,0.2937,0.2936,0.2935,0.2934,0,0,0.2692,0.2751,0.2755,0.2775,0.283,0.2843,0.2893,0.2938,0.2979,0.3002,0.3056,0.308,0.3094,0.3102,0.31,0.3139,0.3222,0.3124,0.3125,0.316,0.3323,0.3252,0.3259,0.322,0.3222,0.3225,0.3313,0,0.2698,0.2736,0.2773,0.2811,0.2833,0.288,0.2925,0.2971,0.3017,0.3074,0.3104,0.3155,0.3127,0.3156,0.3191,0.3222,0.3261,0.3201,0.3261,0.3263,0.3197,0.3274,0.3017,0.3069,0.3326,0.3328,0.333,0,0.2693,0.2723,0.2761,0.2823,0.2841,0.2873,0.2955,0.3002,0.3095,0.3142,0.3206,0.3232,0.3303,0.327,0.3355,0.332,0.3334,0.3348,0.3351,0.3278,0.3218,0.3056,0.3084,0.3352,0.335,0.3349,0.3347,0,0.2644,0.2708,0.2736,0.2757,0.2836,0.287,0.2923,0.3018,0.3075,0.3201,0.3256,0.3336,0.3386,0.3427,0.3447,0.3418,0.3536,0.3491,0.3439,0.3433,0.3223,0.3195,0.356,0.356,0.3559,0.3559,0.3559,0,0.262,0.2638,0.2715,0.2726,0.2776,0.2847,0.2919,0.2999,0.3119,0.3185,0.3287,0.3348,0.3432,0.349,0.3498,0.3515,0.3575,0.3475,0.3463,0.3234,0.3207,0.3452,0.3438,0.3562,0.3562,0.3561,0.356,0,0.2548,0.26,0.2631,0.2717,0.2749,0.2784,0.2907,0.2958,0.3096,0.3192,0.3238,0.3387,0.3473,0.3531,0.3613,0.3573,0.3601,0.3586,0.331,0.3264,0.3456,0.3444,0.355,0.3548,0.3547,0.3546,0.3545,0,0.2511,0.2521,0.2605,0.2625,0.2664,0.2733,0.278,0.2931,0.2995,0.3186,0.3219,0.3364,0.3421,0.3534,0.3523,0.3548,0.3594,0.3305,0.32,0.3483,0.3462,0.3452,0.3442,0.2942,0.2937,0.2932,0.2928,0,0.2441,0.2474,0.25,0.2548,0.2591,0.2638,0.2723,0.2771,0.2935,0.3019,0.3129,0.3203,0.3335,0.326,0.332,0.3287,0.3283,0.3209,0.3595,0.2984,0.2918,0.2894,0.2903,0.2886,0.289,0.2893,0.2896,0.2897,0.2384,0.2383,0.2423,0.2452,0.2498,0.2519,0.2517,0.2611,0.2683,0.2778,0.2932,0.2958,0.3037,0.2998,0.2925,0.2875,0.3092,0.2943,0.2955,0.2972,0.2886,0.2821,0.2755,0.2758,0.2761,0.2763,0.2765,0,0.2297,0.2306,0.2326,0.2348,0.2335,0.2405,0.245,0.242,0.2435,0.2561,0.2631,0.2466,0.2457,0.2527,0.24,0.2419,0.2366,0.2311,0.2213,0.2259,0.2299,0.2174,0.1856,0.1853,0.185,0.1847,0,0,0.2254,0.2225,0.2226,0.217,0.2184,0.2128,0.2117,0.2104,0.2154,0.2137,0.2143,0.2348,0.2462,0.2116,0.2095,0.1948,0.2076,0.1873,0.2613,0.2545,0.258,0.2689,0.2552,0,0,0,0,0]},{"header":{"parameterUnit":"m.s-1","parameterCategory":2,"la1":30.2991,"la2":30.254,"lo1":-89.0895,"lo2":-89.0444,"dy":0.0017,"dx":0.0017,"nx":28,"ny":28,"refTime":"2024-12-20T09:00:00:Z","depth":"2","parameterNumber":3,"parameterNumberName":"V-component_of_CURRENTS"},"data":[0,0,0,0,0,0,0,0,0,0,0,0,0,0,0,0,0,0,0,0,0,0,0,0,0,0,0,0,0,0,0,0,0,0,0,0,0,0,0,0,0,0,0,0,0,0,0,0,0,0,0,0,0,0,0,0,0,0,0.016,0.016,0,0.0111,0.0111,0.011,0.0077,0.0077,0.0077,0.0076,0.0022,0.0021,0.002,0,0,0,0,0,0,0,0,0,0,0,0,0,0.0185,0.0185,0.016,0.016,0.0159,0.0111,0.0111,0.011,0.0077,0.0077,0.0076,0.0076,0.0023,0.0021,0.0019,0,0,0,0,0,0,0,0,0,0,0,0,0,0.0158,0.0185,0.016,0.0138,0.0135,0.0112,0.0111,0.011,0.0077,0.0077,0.0076,0.0076,0.0023,0.0021,0.0019,0.0011,0,0,0.0013,0.0012,0,0,0,0,0,0,0,0,0.016,0.0157,0.0142,0.0139,0.0137,0.0101,0.01,0.0077,0.0077,0.0098,0.0076,0.0076,0.0049,0.0045,0.0034,0.0009,0.0006,0.0013,0.0012,0.0011,0.001,0,0,0,0,0,0,0,0.0162,0.0159,0.014,0.0141,0.0138,0.0117,0.0113,0.0095,0.0074,0.0096,0.0094,0.009,0.0047,0.0036,0.0033,0.0005,0.0013,0.0011,0.001,0.0009,-0.0028,-0.0028,0,0,0,0,0,0,0.0172,0.0161,0.0141,0.0138,0.0149,0.0117,0.0112,0.0112,0.0074,0.0069,0.009,0.0089,0.004,0.0035,0.0031,0.0032,0.0011,0.0009,0.0008,-0.0028,-0.0028,-0.0028,0,0,0,0,0,0,0.0173,0.0171,0.0143,0.0149,0.0144,0.0117,0.0116,0.0111,0.0102,0.007,0.0064,0.0087,0.004,0.0034,0.0021,0.0029,0.0008,0.0006,-0.0028,-0.0028,-0.0028,0.0025,0,0,0,0,0,0,0.0174,0.0172,0.0174,0.015,0.0144,0.0137,0.0116,0.011,0.01,0.0098,0.0066,0.006,0.0039,0.0024,0.0019,0.0026,0.0005,-0.0029,-0.0028,-0.0028,0.0023,0.0027,0.0031,0,0,0,0,0,0.0175,0.0184,0.0174,0.0172,0.0149,0.0137,0.0132,0.0111,0.01,0.0101,0.0079,0.0061,0.0022,0.0023,0.0017,0.0023,-0.0029,-0.0028,-0.0028,0.0021,0.0026,0.0031,0,0,0,0,0,0,0.0196,0.0181,0.017,0.0173,0.0158,0.0132,0.013,0.0115,0.0097,0.0095,0.0065,0.0058,0.0048,0.0028,0.0029,0.0013,-0.0007,-0.0007,0.0033,0.0037,0.0041,0.006,0.0003,0,0,0,0,0,0.0202,0.0204,0.0184,0.0187,0.0181,0.0156,0.0147,0.0135,0.0116,0.0108,0.0085,0.0062,0.0045,0.0036,0.0016,0.0009,-0.0014,0.0008,0.0012,0.0015,0.0026,-0.0002,0.0,-0.0026,-0.0026,-0.0026,0,0,0.0211,0.0203,0.0203,0.0191,0.0177,0.0181,0.015,0.0144,0.0148,0.0105,0.0102,0.0074,0.0045,0.0037,0.0031,0.0022,0.001,0.0016,0.0019,0.0028,-0.0001,0.0001,0.0003,-0.0026,-0.0026,-0.0026,0,0,0.0236,0.0222,0.0235,0.0226,0.0212,0.0199,0.0201,0.0177,0.0166,0.0157,0.0129,0.0109,0.008,0.0063,0.0051,0.0064,0.003,0.0054,0.009,0.0063,0.0065,0.0066,0.0037,0.0036,0.0057,0.0057,0.0057,0,0.0248,0.0261,0.0236,0.0246,0.0249,0.0213,0.0231,0.0214,0.0189,0.0189,0.0164,0.0123,0.0095,0.0091,0.0092,0.0073,0.0051,0.0077,0.0068,0.007,0.007,0.004,0.0038,0.006,0.006,0.0059,0.0059,0,0.0282,0.0292,0.0299,0.0303,0.0301,0.0309,0.0288,0.0281,0.0261,0.0245,0.0229,0.0182,0.0163,0.0144,0.0121,0.0116,0.0095,0.0076,0.006,0.0076,0.0043,0.004,0.0064,0.0063,0.0062,0.0061,0,0,0.0316,0.0324,0.0327,0.0346,0.0335,0.0342,0.0345,0.0346,0.0362,0.0314,0.0325,0.0275,0.0246,0.023,0.0191,0.0162,0.0139,0.0126,0.0123,0.0103,0.0077,0.0054,0.0048,0.0117,0.0117,0.0117,0.0051,0,0.0354,0.0394,0.0384,0.0426,0.0449,0.0423,0.0433,0.0425,0.0412,0.041,0.035,0.0343,0.028,0.0273,0.0232,0.0169,0.0134,0.0159,0.0059,0.0056,0.0039,0.0045,0.0067,0.0009,0.0047,0.0047,0.0046,0,0.0397,0.042,0.0467,0.0501,0.0508,0.0521,0.0545,0.0554,0.0535,0.0524,0.0495,0.0447,0.0399,0.034,0.0234,0.0253,0.0173,0.0111,0.0107,0.0068,0.0028,-0.0001,0.0002,0.0041,0.0041,0.0041,0.0042,0,0.0445,0.0484,0.0527,0.0536,0.0558,0.0574,0.0588,0.0588,0.062,0.0601,0.0615,0.0539,0.0512,0.0399,0.0263,0.0251,0.014,0.0107,0.0008,0.0005,-0.0004,-0.0007,0.0029,0.0029,0.003,0.003,0.003,0,0.0497,0.0534,0.0553,0.0577,0.064,0.0631,0.0697,0.0697,0.0717,0.0767,0.0681,0.0695,0.0526,0.0437,0.0298,0.0148,0.0164,0.0019,-0.0011,0.0014,0.0013,0.0019,0.0019,0.0027,0.0028,0.0028,0.0029,0,0.0546,0.0554,0.0612,0.0646,0.0665,0.0711,0.0781,0.083,0.0831,0.0892,0.089,0.082,0.0703,0.0523,0.0345,0.0208,0.0057,-0.0004,0.0035,0.0011,-0.0071,-0.0068,-0.0118,-0.012,-0.0121,-0.0122,-0.0122,0,0.0574,0.0606,0.067,0.0716,0.0735,0.0804,0.0857,0.0887,0.0953,0.0974,0.1012,0.0915,0.0866,0.059,0.0333,0.0087,0.0053,-0.0061,-0.0085,-0.0061,-0.0085,-0.008,-0.0076,-0.008,-0.0081,-0.0081,-0.0081,0,0.0632,0.0649,0.0697,0.0792,0.0856,0.0945,0.1025,0.1094,0.1132,0.1176,0.1211,0.1167,0.0904,0.0658,0.0312,0.0144,-0.0023,-0.0076,-0.0056,-0.0044,-0.003,-0.0052,-0.0048,-0.0084,-0.0084,-0.0083,-0.0083,-0.0083,0.0675,0.0721,0.0782,0.0876,0.0957,0.1065,0.115,0.1237,0.1338,0.1404,0.1361,0.1302,0.1011,0.0578,0.0274,-0.0046,-0.003,-0.0145,-0.0142,-0.0139,-0.012,-0.0108,-0.0174,-0.0174,-0.0174,-0.0174,-0.0175,0,0.0727,0.0779,0.0867,0.0974,0.107,0.1106,0.1249,0.1333,0.1451,0.1499,0.152,0.1251,0.0963,0.0628,0.0154,-0.0128,-0.0145,-0.0217,-0.0177,-0.0172,-0.0168,-0.015,-0.0213,-0.0214,-0.0214,-0.0215,0,0,0.0754,0.0838,0.0882,0.1043,0.1126,0.1263,0.1348,0.1462,0.1533,0.1581,0.155,0.1482,0.1067,0.0722,0.0333,0.0057,0.0009,0.0005,0.0066,0.0164,0.0171,-0.0096,-0.0059,0,0,0,0,0]}],[{"header":{"parameterUnit":"m.s-1","parameterCategory":2,"la1":30.2991,"la2":30.254,"lo1":-89.0895,"lo2":-89.0444,"dy":0.0017,"dx":0.0017,"nx":28,"ny":28,"refTime":"2024-12-20T09:00:00:Z","depth":"4","parameterNumber":2,"parameterNumberName":"U-component_of_CURRENTS"},"data":[0,0,0,0,0,0,0,0,0,0,0,0,0,0,0,0,0,0,0,0,0,0,0,0,0,0,0,0,0,0,0,0,0,0,0,0,0,0,0,0,0,0,0,0,0,0,0,0,0,0,0,0,0,0,0,0,0,0,0.1686,0.1687,0,0.177,0.1771,0.1772,0.1836,0.1837,0.1837,0.1838,0.1907,0.1908,0.1909,0,0,0,0,0,0,0,0,0,0,0,0,0,0.1577,0.1578,0.1686,0.1687,0.1689,0.177,0.1771,0.1772,0.1835,0.1837,0.1838,0.1839,0.1907,0.1908,0.1909,0,0,0,0,0,0,0,0,0,0,0,0,0,0.1635,0.1578,0.1686,0.1733,0.1738,0.177,0.1771,0.1772,0.1835,0.1837,0.1838,0.1839,0.1906,0.1908,0.1909,0.1892,0,0,0.1914,0.1915,0,0,0,0,0,0,0,0,0.1632,0.1639,0.1725,0.173,0.1736,0.1797,0.1758,0.1813,0.1835,0.1795,0.1838,0.184,0.187,0.1875,0.1883,0.1895,0.1898,0.1914,0.1915,0.1916,0.1916,0,0,0,0,0,0,0,0.1628,0.1636,0.1716,0.1726,0.1733,0.1749,0.1758,0.1768,0.1821,0.1798,0.1804,0.1818,0.1873,0.1881,0.1885,0.1899,0.1914,0.1915,0.1916,0.1917,0.2009,0.201,0,0,0,0,0,0,0.1623,0.1632,0.1713,0.1719,0.169,0.175,0.176,0.1773,0.1821,0.1831,0.1817,0.1821,0.1878,0.1883,0.1888,0.197,0.1916,0.1917,0.1918,0.2007,0.2009,0.2011,0,0,0,0,0,0,0.162,0.1629,0.171,0.168,0.1692,0.1751,0.1764,0.1774,0.1823,0.1836,0.1846,0.1861,0.1879,0.1886,0.1931,0.197,0.1918,0.1919,0.2005,0.2008,0.201,0.207,0,0,0,0,0,0,0.1617,0.1628,0.1651,0.168,0.1694,0.1753,0.1764,0.1775,0.1829,0.1836,0.1876,0.1882,0.1881,0.1929,0.1933,0.1971,0.192,0.2003,0.2006,0.2009,0.2067,0.2075,0.2081,0,0,0,0,0,0.1612,0.1633,0.1651,0.1662,0.1718,0.1755,0.1764,0.1807,0.183,0.1855,0.1886,0.1882,0.1951,0.1932,0.1936,0.1975,0.2002,0.2006,0.2009,0.2063,0.2073,0.2081,0,0,0,0,0,0,0.1603,0.1642,0.1663,0.1698,0.1736,0.1768,0.1802,0.1827,0.1871,0.189,0.1898,0.1906,0.1962,0.1958,0.1937,0.201,0.1977,0.1982,0.2017,0.2026,0.2034,0.2038,0.1921,0,0,0,0,0,0.1609,0.1636,0.1675,0.1708,0.1731,0.1773,0.1801,0.1831,0.1867,0.189,0.1917,0.1946,0.1971,0.1992,0.2011,0.2047,0.2051,0.2076,0.2083,0.209,0.2097,0.2133,0.2145,0.2022,0.2022,0.2022,0,0,0.1616,0.1642,0.166,0.1708,0.1744,0.178,0.1794,0.1849,0.1886,0.1888,0.1954,0.1975,0.1987,0.2032,0.2057,0.204,0.2129,0.2094,0.2099,0.2103,0.2138,0.215,0.216,0.2025,0.2024,0.2024,0,0,0.163,0.1668,0.1694,0.1728,0.1789,0.1813,0.1837,0.189,0.1927,0.1982,0.1996,0.2042,0.208,0.2098,0.2109,0.2168,0.2167,0.2181,0.2224,0.226,0.227,0.2279,0.2306,0.2317,0.2184,0.2184,0.2185,0,0.1642,0.1675,0.1709,0.1744,0.1779,0.1831,0.1869,0.1908,0.1972,0.2001,0.2016,0.2094,0.211,0.2159,0.2186,0.2186,0.2204,0.2188,0.2269,0.2278,0.2287,0.2312,0.2323,0.2188,0.2187,0.2187,0.2187,0,0.1664,0.1707,0.173,0.1787,0.1826,0.1872,0.1925,0.1977,0.2028,0.2062,0.2139,0.2167,0.2213,0.2229,0.2229,0.2299,0.2293,0.2274,0.2245,0.2303,0.2326,0.2336,0.2193,0.2191,0.219,0.219,0,0,0.165,0.1729,0.1742,0.1775,0.1856,0.1886,0.1956,0.2021,0.2076,0.2141,0.2206,0.226,0.229,0.2305,0.2319,0.2355,0.2434,0.235,0.2351,0.2375,0.2519,0.2359,0.2355,0.2436,0.2438,0.244,0.2514,0,0.1665,0.1722,0.1764,0.1831,0.1865,0.1933,0.1989,0.2058,0.2126,0.2201,0.2249,0.232,0.2314,0.2359,0.2393,0.243,0.2465,0.2416,0.2462,0.2463,0.2312,0.2363,0.2447,0.2522,0.2524,0.2526,0.2527,0,0.167,0.1709,0.177,0.185,0.1875,0.1928,0.203,0.2088,0.2195,0.2254,0.2331,0.2377,0.2457,0.2442,0.2527,0.2502,0.2521,0.2537,0.254,0.2374,0.2322,0.2451,0.2546,0.2545,0.2543,0.2542,0.2541,0,0.1624,0.1712,0.1759,0.1789,0.1888,0.194,0.2003,0.2109,0.2171,0.2303,0.2368,0.2454,0.2523,0.2561,0.2603,0.2583,0.2683,0.2651,0.252,0.251,0.2605,0.2595,0.2705,0.2705,0.2705,0.2705,0.2705,0,0.1601,0.1645,0.1749,0.1774,0.1845,0.1925,0.2016,0.2097,0.2219,0.2289,0.2398,0.2462,0.2563,0.2624,0.2637,0.261,0.2711,0.2535,0.2518,0.2629,0.2621,0.2613,0.2601,0.2708,0.2707,0.2707,0.2706,0,0.1539,0.1608,0.1669,0.1782,0.1826,0.1878,0.2018,0.2072,0.2209,0.2309,0.2361,0.2503,0.2578,0.2645,0.272,0.2641,0.2639,0.2604,0.2734,0.2722,0.2435,0.2426,0.2457,0.2452,0.2448,0.2444,0.2441,0,0.1505,0.1532,0.166,0.17,0.176,0.1853,0.1911,0.2056,0.2116,0.2304,0.2335,0.2473,0.2543,0.2517,0.2601,0.2609,0.2576,0.2556,0.2474,0.243,0.2411,0.2408,0.2405,0.2434,0.2433,0.2432,0.2431,0,0.1439,0.1503,0.155,0.1633,0.1704,0.1768,0.1868,0.19,0.2056,0.2201,0.2255,0.2294,0.2373,0.2415,0.2446,0.2444,0.2555,0.2511,0.2518,0.2441,0.2403,0.2387,0.2389,0.2416,0.2418,0.242,0.2421,0,0.1395,0.1411,0.1484,0.1542,0.1625,0.1653,0.1718,0.1782,0.1858,0.2061,0.2075,0.2213,0.2349,0.2332,0.2358,0.2346,0.2302,0.2212,0.2234,0.2252,0.2147,0.2066,0.1966,0,0,0,0,0,0.1338,0.134,0.1385,0.1434,0.1509,0.1557,0.1673,0.174,0.1893,0.1877,0.197,0.203,0.207,0.2147,0.2092,0.2268,0.2313,0.2194,0.2221,0.2334,0.2351,0.2246,0,0,0,0,0,0,0.1297,0.1335,0.1342,0.1331,0.1344,0.1408,0.1473,0.1575,0.1578,0.1743,0.1778,0.1903,0.1977,0.2079,0.2052,0.2074,0.2047,0.2286,0.2281,0.2325,0.234,0.2354,0.2252,0,0,0,0,0]},{"header":{"parameterUnit":"m.s-1","parameterCategory":2,"la1":30.2991,"la2":30.254,"lo1":-89.0895,"lo2":-89.0444,"dy":0.0017,"dx":0.0017,"nx":28,"ny":28,"refTime":"2024-12-20T09:00:00:Z","depth":"4","parameterNumber":3,"parameterNumberName":"V-component_of_CURRENTS"},"data":[0,0,0,0,0,0,0,0,0,0,0,0,0,0,0,0,0,0,0,0,0,0,0,0,0,0,0,0,0,0,0,0,0,0,0,0,0,0,0,0,0,0,0,0,0,0,0,0,0,0,0,0,0,0,0,0,0,0,0.0179,0.0178,0,0.0145,0.0145,0.0144,0.0126,0.0126,0.0126,0.0126,0.0095,0.0094,0.0093,0,0,0,0,0,0,0,0,0,0,0,0,0,0.0194,0.0194,0.0179,0.0178,0.0178,0.0145,0.0145,0.0144,0.0126,0.0126,0.0126,0.0126,0.0095,0.0094,0.0093,0,0,0,0,0,0,0,0,0,0,0,0,0,0.0176,0.0194,0.0179,0.0166,0.0164,0.0145,0.0145,0.0144,0.0126,0.0126,0.0126,0.0126,0.0096,0.0094,0.0093,0.0085,0,0,0.0089,0.0089,0,0,0,0,0,0,0,0,0.0177,0.0175,0.0168,0.0166,0.0165,0.014,0.0138,0.0124,0.0126,0.014,0.0126,0.0126,0.0111,0.0108,0.0101,0.0083,0.0082,0.0089,0.0088,0.0088,0.0087,0,0,0,0,0,0,0,0.0178,0.0176,0.0165,0.0167,0.0166,0.015,0.0147,0.0135,0.0125,0.0139,0.0138,0.0135,0.011,0.0102,0.01,0.0082,0.0089,0.0088,0.0087,0.0087,0.006,0.006,0,0,0,0,0,0,0.0185,0.0178,0.0166,0.0164,0.0172,0.015,0.0147,0.0148,0.0125,0.0122,0.0135,0.0134,0.0104,0.0102,0.0099,0.0102,0.0088,0.0087,0.0086,0.006,0.006,0.006,0,0,0,0,0,0,0.0186,0.0185,0.0167,0.017,0.0167,0.015,0.015,0.0147,0.0143,0.0122,0.0119,0.0135,0.0104,0.0101,0.0094,0.01,0.0086,0.0085,0.006,0.006,0.006,0.0099,0,0,0,0,0,0,0.0186,0.0185,0.0189,0.0171,0.0167,0.0162,0.015,0.0146,0.0141,0.014,0.0121,0.0118,0.0104,0.0096,0.0093,0.0098,0.0084,0.006,0.006,0.006,0.0098,0.0101,0.0103,0,0,0,0,0,0.0187,0.0194,0.019,0.0188,0.0173,0.0162,0.0159,0.0146,0.0141,0.0142,0.013,0.0119,0.0094,0.0095,0.0091,0.0097,0.006,0.006,0.006,0.0097,0.01,0.0103,0,0,0,0,0,0,0.0202,0.0192,0.0187,0.0191,0.018,0.016,0.0159,0.015,0.014,0.0141,0.0121,0.0117,0.0112,0.0098,0.01,0.0088,0.0075,0.0074,0.0104,0.0107,0.0109,0.0124,0.0083,0,0,0,0,0,0.0207,0.0212,0.0196,0.02,0.0196,0.0179,0.0173,0.0165,0.0153,0.0149,0.0134,0.012,0.0108,0.0104,0.009,0.0086,0.0064,0.0085,0.0088,0.009,0.0099,0.0069,0.0069,0.0061,0.0061,0.0061,0,0,0.0214,0.021,0.0212,0.0204,0.0194,0.0197,0.0175,0.0172,0.0176,0.0147,0.0148,0.0129,0.0109,0.0104,0.01,0.0094,0.0079,0.009,0.0092,0.01,0.0069,0.007,0.007,0.0061,0.0061,0.0061,0,0,0.0231,0.0226,0.0236,0.023,0.0221,0.0212,0.0214,0.0197,0.0191,0.0186,0.0167,0.0154,0.0135,0.0123,0.0114,0.0122,0.0093,0.0115,0.0142,0.0113,0.0114,0.0114,0.008,0.0077,0.0118,0.0118,0.0118,0,0.0241,0.0252,0.0236,0.0244,0.0247,0.0223,0.0236,0.0225,0.0208,0.0209,0.0193,0.0164,0.0145,0.0141,0.0143,0.0129,0.0106,0.0134,0.0117,0.0117,0.0116,0.0082,0.0078,0.012,0.0119,0.0119,0.0119,0,0.0263,0.0274,0.028,0.0286,0.0285,0.0292,0.0277,0.0274,0.0263,0.0252,0.0241,0.0207,0.0193,0.0179,0.0164,0.0155,0.0137,0.0123,0.0112,0.012,0.0083,0.0078,0.0122,0.0122,0.0121,0.0121,0,0,0.0283,0.0295,0.0298,0.0315,0.0311,0.0316,0.0321,0.0322,0.0335,0.0301,0.0308,0.0274,0.0254,0.0242,0.0213,0.0185,0.0156,0.0158,0.0156,0.013,0.0087,0.0072,0.0066,0.014,0.0139,0.0139,0.006,0,0.0309,0.034,0.0337,0.0372,0.0389,0.0375,0.0384,0.0381,0.0372,0.0369,0.0325,0.032,0.0278,0.0273,0.0237,0.0181,0.0147,0.0179,0.008,0.0077,0.0066,0.0061,0.0138,0.0056,0.0055,0.0055,0.0054,0,0.0335,0.0355,0.0393,0.0426,0.0432,0.0448,0.0469,0.0476,0.0461,0.0454,0.0432,0.0395,0.0354,0.0314,0.0216,0.0238,0.017,0.0116,0.0112,0.0084,0.0054,0.0047,0.0045,0.0046,0.0047,0.0047,0.0048,0,0.0363,0.0399,0.0436,0.0444,0.0469,0.0487,0.0502,0.0504,0.0528,0.0512,0.0521,0.0457,0.0431,0.0337,0.0223,0.0221,0.0105,0.0087,0.0006,0.0004,0.0024,0.0024,0.0016,0.0016,0.0016,0.0016,0.0016,0,0.0393,0.0425,0.0455,0.0475,0.053,0.0529,0.0584,0.0587,0.0601,0.0634,0.0572,0.057,0.0437,0.0352,0.0241,0.0109,0.0116,0.0011,-0.0016,0.004,0.0044,0.002,0.0021,0.0013,0.0014,0.0015,0.0015,0,0.0417,0.0433,0.0484,0.0524,0.0546,0.0586,0.0651,0.0685,0.069,0.0728,0.0727,0.0657,0.0545,0.04,0.0242,0.0142,0.0012,-0.0038,0.0032,0.001,-0.0077,-0.0072,-0.0134,-0.0135,-0.0136,-0.0137,-0.0137,0,0.0431,0.0458,0.0527,0.0569,0.0594,0.0657,0.0701,0.0731,0.0775,0.078,0.0798,0.0705,0.0636,0.0405,0.0244,0.0023,-0.0011,-0.0085,-0.0082,-0.0071,-0.0091,-0.0085,-0.008,-0.0139,-0.0139,-0.0139,-0.014,0,0.0461,0.0485,0.0528,0.0615,0.0676,0.075,0.0817,0.0854,0.0882,0.0889,0.0859,0.0733,0.0603,0.0411,0.0236,0.0078,-0.0041,-0.0096,-0.0095,-0.0093,-0.0078,-0.0096,-0.0089,-0.0143,-0.0142,-0.0142,-0.0142,0,0.0485,0.052,0.0579,0.0657,0.0738,0.0812,0.0849,0.0891,0.0927,0.0927,0.0913,0.0765,0.0682,0.044,0.0281,0.0119,0.0075,0.0017,0.0011,0.0012,0.0073,0.0114,0.0088,0,0,0,0,0,0.0505,0.0546,0.0619,0.0701,0.0781,0.0833,0.0912,0.0938,0.0964,0.0952,0.0937,0.0813,0.0572,0.047,0.0308,0.0251,0.004,0.0053,-0.0032,-0.0161,-0.0158,-0.0113,0,0,0,0,0,0,0.0517,0.0582,0.0616,0.0721,0.0785,0.0877,0.0928,0.0949,0.0947,0.0945,0.0826,0.0764,0.0536,0.0668,0.0303,0.0254,0.0174,-0.0056,-0.006,-0.0164,-0.016,-0.0157,-0.011,0,0,0,0,0]}]]